TimeEDT,TemperatureF,Dew PointF,Humidity,Sea Level PressureIn,VisibilityMPH,Wind Direction,Wind SpeedMPH,Gust SpeedMPH,PrecipitationIn,Events,Conditions,WindDirDegrees,DateUTC
12:53 AM,59.0,44.1,58,29.81,10.0,WNW,5.8,-,N/A,,Clear,290,2013-06-04 04:53:00
1:53 AM,55.9,45.0,67,29.82,10.0,West,5.8,-,N/A,,Scattered Clouds,270,2013-06-04 05:53:00
2:53 AM,55.9,44.1,64,29.82,10.0,West,4.6,-,N/A,,Clear,280,2013-06-04 06:53:00
3:53 AM,55.0,42.1,62,29.83,10.0,WNW,5.8,-,N/A,,Clear,290,2013-06-04 07:53:00
4:53 AM,52.0,41.0,66,29.84,10.0,WNW,5.8,-,N/A,,Clear,290,2013-06-04 08:53:00
5:53 AM,52.0,39.9,63,29.87,10.0,WNW,3.5,-,N/A,,Clear,290,2013-06-04 09:53:00
6:53 AM,55.9,41.0,57,29.88,10.0,NW,9.2,-,N/A,,Clear,310,2013-06-04 10:53:00
7:53 AM,59.0,39.9,49,29.88,10.0,NW,15.0,19.6,N/A,,Clear,310,2013-06-04 11:53:00
8:53 AM,61.0,42.1,50,29.88,10.0,WNW,9.2,16.1,N/A,,Clear,290,2013-06-04 12:53:00
9:53 AM,64.0,42.1,45,29.88,10.0,NW,12.7,23.0,N/A,,Clear,320,2013-06-04 13:53:00
10:53 AM,66.0,43.0,43,29.89,10.0,NW,16.1,20.7,N/A,,Clear,320,2013-06-04 14:53:00
11:53 AM,64.0,42.1,45,29.90,10.0,WNW,12.7,21.9,N/A,,Mostly Cloudy,290,2013-06-04 15:53:00
12:53 PM,68.0,44.1,42,29.91,10.0,NW,16.1,24.2,N/A,,Scattered Clouds,320,2013-06-04 16:53:00
1:53 PM,68.0,43.0,40,29.91,10.0,NW,16.1,23.0,N/A,,Mostly Cloudy,310,2013-06-04 17:53:00
2:53 PM,69.1,43.0,39,29.91,10.0,NW,17.3,25.3,N/A,,Mostly Cloudy,310,2013-06-04 18:53:00
3:53 PM,70.0,44.1,39,29.91,10.0,North,10.4,19.6,N/A,,Clear,350,2013-06-04 19:53:00
4:53 PM,70.0,43.0,38,29.91,10.0,WNW,9.2,19.6,N/A,,Clear,300,2013-06-04 20:53:00
5:53 PM,70.0,43.0,38,29.92,10.0,NNW,13.8,19.6,N/A,,Clear,340,2013-06-04 21:53:00
6:53 PM,69.1,43.0,39,29.94,10.0,NW,8.1,-,N/A,,Clear,310,2013-06-04 22:53:00
7:53 PM,66.0,44.1,45,29.97,10.0,NW,3.5,-,N/A,,Clear,320,2013-06-04 23:53:00
8:53 PM,60.1,45.0,57,30.00,10.0,Calm,Calm,-,N/A,,Clear,0,2013-06-05 00:53:00
9:53 PM,57.9,44.1,60,30.03,10.0,NNW,4.6,-,N/A,,Clear,330,2013-06-05 01:53:00
10:53 PM,57.9,42.1,56,30.06,10.0,NNW,5.8,-,N/A,,Clear,340,2013-06-05 02:53:00
11:53 PM,55.0,43.0,64,30.08,10.0,NNW,3.5,-,N/A,,Clear,340,2013-06-05 03:53:00